Torna al catalogo

DELTA 1 DEB

AttivoSSO
NORAD 21295·DEBRIS·🇺🇸 United States

Lanciato Jun 12, 1975 da Vandenberg Space Force Base

Loading…

Prossimi Passaggi (prossime 24 ore)

TLE

AggiornatoSource: Space-Track

Epoca: Sep 14, 2026, 11:33 UTC

1 21295U 75052AG  26257.48142618  .00000122  00000-0  28785-3 0  9992
2 21295  99.7408  80.9650 0020291  97.3770 291.4239 13.43024889729755

Traccia DELTA 1 DEB in tempo reale con AllMySat

Download on the App Store